Retour au catalogue

GEOSKAN-4

ActifRadio amateurSSO
NORAD 64892·PAYLOAD·🇷🇺 Russia
Ce nom de satellite n'a pas encore été confirmé par des sources officielles.

Lancé Jul 25, 2025 depuis Vostochny Cosmodrome

Loading…

Prochains Passages (prochaines 24 heures)

TLE

FraisSource: Space-Track

Époque: Sep 14, 2026, 14:11 UTC

1 64892U 25155S   26257.59123789  .00012912  00000-0  37413-3 0  9999
2 64892  97.4656 228.0231 0004517 200.1976 159.9090 15.35685235 94535

Suivez GEOSKAN-4 en temps réel avec AllMySat

Download on the App Store